Location: Walton
(43.6794°N, 81.3017°W)
Time: 02:22:02
(UTC+00:00)

BREEZE-M DEB (TANK) - Pass Details

Date: 09 December 2025
Orbit: 322 x 14419 km, 49.6° (Epoch: 17 January)

Event Time Altitude Azimuth Distance (km) Brightness Sun altitude
Exits shadow 11:29:35 22° 321° (NW) 944 3.7 -13.5°
Maximum altitude 11:30:47 31° 7° (N) 849 3.9 -13.3°
Drops below altitude 10° 11:35:13 10° 72° (ENE) 2,603 7.3 -12.6°
Sets 11:39:55 0° 81° (E) 4,803 9.0 -11.8°
